Location: Härggis
(46.9540°N, 8.4897°E)
Time: 23:01:37
(UTC+00:00)

NPP - Pass Details

Date: 27 May 2022
Orbit: 826 x 828 km, 98.7° (Epoch: 02 July)

Event Time Altitude Azimuth Distance (km) Brightness Sun altitude
Rises 01:30:05 0° 13° (NNE) 3,379 8.3 -16.0°
Reaches altitude 10° 01:32:27 10° 12° (NNE) 2,441 7.3 -15.8°
Maximum altitude 01:37:51 77° 288° (WNW) 852 3.7 -15.3°
Enters shadow 01:41:22 22° 204° (SSW) 1,713 4.7 -15.0°
